Snowfall_Accumulation
0.0 0.0 0.0 0.0 0.0 0.0 0.0 0.0 0.0 0.0 0.0 0.0 0.0 0.0 0.0 0.0 0.0 0.0 0.0 0.0 0.0 0.0 0.0 0.0 0.0 0.0 0.0 0.0 0.0 0.0 0.0 0.0 0.0 0.0 0.0 0.0 0.0 0.0 0.0 0.0 0.0 0.0 0.0
0.0 0.0 0.0 0.0 0.0 0.0 0.0 0.0 0.0 0.0 0.0 0.0 0.0 0.0 0.0 0.0 0.0 0.0 0.0 0.0 0.0 0.0 0.0 0.0 0.0 0.0 0.0 0.0 0.0 0.0 0.0 0.0 0.0 0.0 0.0 0.0 0.0 0.0 0.0 0.0 0.0 0.0 0.0
0.0 0.0 0.0 0.0 0.0 0.0 0.0 0.0 0.0 0.0 0.0 0.0 0.0 0.0 0.0 0.0 0.0 0.0 0.0 0.0 0.0 0.0 0.0 0.0 0.0 0.0 0.0 0.0 0.0 0.0 0.0 0.0 0.0 0.0 0.1 0.0 0.1 0.1 0.1 0.0 0.0 0.0 0.0
0.0 0.0 0.0 0.0 0.0 0.0 0.0 0.0 0.0 0.0 0.0 0.0 0.0 0.0 0.0 0.0 0.0 0.0 0.0 0.0 0.0 0.0 0.0 0.0 0.0 0.0 0.0 0.0 0.0 0.0 0.0 0.0 0.1 0.1 0.2 0.2 0.2 0.2 0.2 0.2 0.3 0.2 0.2
0.0 0.0 0.0 0.0 0.0 0.0 0.0 0.0 0.0 0.0 0.0 0.0 0.0 0.0 0.0 0.0 0.0 0.0 0.0 0.0 0.0 0.0 0.0 0.0 0.0 0.0 nan nan 0.0 0.0 0.0 0.1 0.2 0.2 0.2 0.2 0.2 0.4 0.4 0.3 0.4 0.3 0.3
0.0 0.0 0.0 0.0 0.0 0.0 0.0 0.0 0.0 0.0 0.0 0.0 0.0 0.0 0.0 0.0 nan nan 0.0 0.0 0.0 0.0 0.0 0.0 0.0 0.0 0.0 nan nan nan nan 0.0 0.0 0.3 0.3 0.2 0.0 0.3 0.3 0.4 0.5 1.0 1.1
0.0 0.0 0.0 0.0 0.0 0.0 0.0 0.0 0.0 0.0 0.0 0.0 0.0 0.0 0.0 0.0 nan nan nan 0.0 0.0 0.0 0.0 0.0 0.0 0.0 0.0 0.0 nan nan nan nan nan 0.0 0.0 0.1 0.1 0.0 0.0 0.1 0.1 0.6 0.7
0.0 0.0 0.0 0.0 0.0 0.1 0.1 0.1 0.0 0.0 0.0 0.0 0.0 0.0 0.0 0.0 nan nan nan 0.0 0.0 0.0 0.0 0.0 0.0 0.0 0.0 0.0 0.0 0.0 0.0 0.0 0.0 0.0 0.0 0.0 0.0 0.0 0.0 0.0 0.1 0.1 0.8
0.0 0.0 0.0 0.0 0.1 0.1 0.1 0.1 0.0 0.0 0.0 0.0 0.0 0.0 0.0 0.0 nan nan 0.0 0.0 0.0 0.0 0.0 0.0 0.0 0.0 nan nan 0.0 0.1 0.1 0.1 nan nan nan nan nan nan nan 1.1 4.8 7.4 4.7
0.0 0.0 0.0 0.1 0.1 0.1 0.1 0.1 0.1 0.1 0.1 0.5 0.1 0.0 0.0 0.0 nan nan nan 0.3 0.0 0.4 0.0 0.0 0.0 0.0 nan nan 0.1 0.1 0.3 0.2 0.3 1.0 0.2 0.1 nan nan nan 0.1 1.3 5.6 4.5
0.1 0.1 0.1 0.1 0.2 0.1 0.1 0.1 0.1 0.1 0.1 0.2 0.2 0.1 0.1 0.0 0.0 nan nan 0.2 0.6 1.1 1.1 1.1 0.7 nan nan nan nan 0.2 0.2 0.1 0.5 0.9 0.9 1.3 0.8 0.5 0.8 0.5 0.2 0.9 2.6
0.2 0.3 0.4 0.8 0.4 0.2 0.9 0.4 0.7 0.3 0.4 0.4 0.6 0.9 1.0 0.1 nan nan nan nan nan 1.3 0.8 0.7 0.7 nan nan nan 0.8 nan nan 0.6 2.7 3.2 2.8 2.5 1.8 1.5 1.1 0.9 0.1 0.4 0.6
1.5 2.7 2.1 1.6 1.3 0.9 1.3 0.7 2.2 0.7 1.8 0.7 2.1 2.1 1.8 1.7 1.3 nan nan nan nan 1.4 1.0 1.0 nan nan nan nan nan nan 0.3 2.8 3.7 4.9 3.3 2.2 1.3 1.1 0.7 1.2 0.6 0.5 0.4
3.7 1.9 1.2 1.6 1.0 1.2 2.1 2.2 3.1 2.7 2.6 2.8 3.4 3.4 2.5 2.6 1.7 1.5 2.4 1.4 0.9 2.4 nan 2.4 nan 2.2 nan nan 2.0 2.1 2.3 2.5 2.8 3.3 3.0 2.1 2.1 3.0 2.9 2.0 3.1 2.7 5.7
2.6 1.4 1.3 2.2 2.4 1.7 1.7 2.6 2.3 1.0 2.4 5.4 6.5 5.1 7.0 6.6 3.9 1.7 4.8 5.2 4.2 4.4 4.7 7.0 6.5 5.2 5.3 4.4 4.8 4.7 3.5 4.2 5.0 4.5 4.6 4.7 4.3 4.0 4.0 2.9 3.4 4.6 6.5
1.9 3.2 3.0 3.0 2.7 2.5 2.7 3.0 nan nan nan nan nan 4.2 5.8 nan nan nan nan nan nan nan 11.7 12.4 7.4 5.9 5.4 5.3 6.5 6.7 5.8 5.6 5.3 5.5 5.9 5.7 7.1 6.3 6.4 6.5 5.9 6.6 7.5
5.7 4.3 5.1 4.5 4.1 4.1 4.0 4.4 7.0 3.9 nan nan nan nan nan nan nan nan nan nan nan nan 18.8 10.5 9.6 7.7 7.9 7.1 8.0 7.3 8.4 6.4 4.8 6.7 6.6 6.9 7.7 8.0 8.8 7.9 6.9 6.3 8.8
5.3 2.1 5.0 4.7 4.3 4.7 4.8 5.0 5.4 7.7 9.1 6.9 nan nan nan nan nan nan nan nan 19.9 nan 13.6 16.5 16.7 14.7 13.0 11.6 9.9 9.6 9.7 9.3 8.5 7.9 7.9 10.3 11.9 12.9 12.6 12.2 9.0 11.1 10.7
7.0 5.3 5.8 5.5 5.0 5.3 5.9 5.4 5.5 6.5 7.2 9.7 10.3 9.7 4.6 nan nan nan nan 14.5 18.9 17.2 17.1 17.1 14.5 15.3 13.9 14.1 13.1 14.0 12.5 13.3 12.1 14.7 14.5 15.6 14.3 15.1 15.1 11.1 9.5 6.4 7.2
8.2 3.8 6.0 9.3 8.7 7.8 6.2 8.3 8.5 9.1 10.6 11.8 11.9 10.9 13.5 13.1 18.0 17.6 15.4 20.2 21.2 19.7 17.7 18.5 18.4 20.2 21.4 19.8 19.0 17.8 18.5 19.7 18.1 17.7 17.3 16.8 15.8 16.4 13.2 16.2 14.3 13.3 13.9
14.3 12.7 3.3 12.5 14.2 14.7 14.9 13.2 12.0 15.0 13.4 14.8 12.5 11.9 nan 17.4 20.1 20.4 20.4 20.7 22.0 23.4 20.3 21.0 21.8 26.7 27.1 28.9 25.1 24.6 23.2 16.8 19.4 20.5 21.1 20.9 20.3 27.8 15.5 11.9 16.0 16.6 16.0
17.6 17.9 17.6 19.1 15.3 16.2 17.9 14.5 15.4 15.6 15.4 14.5 12.7 12.9 nan 17.6 19.0 19.5 22.4 25.9 29.9 30.9 31.3 34.5 33.4 34.5 31.5 29.8 27.3 25.5 22.7 25.0 25.7 24.4 20.4 21.2 24.1 22.8 21.0 16.6 16.7 15.1 18.0
16.9 16.0 16.9 17.1 16.6 7.6 18.0 20.0 19.3 19.0 18.6 20.0 18.6 20.2 22.0 24.0 23.8 24.7 30.4 33.0 29.2 28.4 30.2 31.1 29.7 29.2 27.1 28.5 25.5 24.4 25.6 27.0 26.7 31.2 26.5 26.2 25.9 27.5 24.1 22.3 20.1 22.4 21.2
16.2 16.2 16.1 19.5 18.8 17.8 20.2 21.2 19.5 7.4 20.5 22.1 29.4 26.4 20.6 23.6 29.6 25.1 25.5 28.3 25.3 33.8 27.5 28.3 25.2 24.6 25.3 31.7 36.2 35.1 36.6 37.6 36.5 34.5 32.1 26.4 25.9 21.2 23.1 25.0 20.9 19.2 17.9
20.4 18.9 18.9 18.1 23.5 21.2 20.3 23.3 20.0 24.7 27.0 23.6 26.0 21.9 22.6 21.1 21.8 26.8 25.8 22.9 24.6 23.1 21.3 20.9 21.1 21.2 21.4 22.2 27.3 31.6 29.6 4.8 20.6 5.1 30.5 24.4 27.2 27.3 26.6 23.2 21.9 20.3 18.2
17.8 19.2 19.9 20.3 20.3 21.4 21.8 21.5 22.0 19.2 22.2 23.0 21.9 22.3 20.2 20.2 19.8 21.6 20.6 20.8 18.2 18.9 19.3 20.5 20.4 18.7 17.9 19.2 19.8 7.4 4.5 4.0 25.4 4.5 26.5 24.3 26.4 25.4 24.9 24.8 24.0 23.0 19.8
Water_Equivalent
0.00 0.00 0.00 0.00 0.00 0.00 0.00 0.00 0.00 0.00 0.00 0.00 0.00 0.00 0.00 0.00 0.00 0.00 0.00 0.00 0.00 0.00 0.00 0.00 0.00 0.00 0.00 0.00 0.00 0.00 0.00 0.00 0.00 0.00 0.00 0.00 0.00 0.00 0.00 0.00 0.00 0.00 0.00
0.00 0.00 0.00 0.00 0.00 0.00 0.00 0.00 0.00 0.00 0.00 0.00 0.00 0.00 0.00 0.00 0.00 0.00 0.00 0.00 0.00 0.00 0.00 0.00 0.00 0.00 0.00 0.00 0.00 0.00 0.00 0.00 0.00 0.00 0.00 0.00 0.00 0.00 0.00 0.00 0.00 0.00 0.00
0.00 0.00 0.00 0.00 0.00 0.00 0.00 0.00 0.00 0.00 0.00 0.00 0.00 0.00 0.00 0.00 0.00 0.00 0.00 0.00 0.00 0.00 0.00 0.00 0.00 0.00 0.00 0.00 0.00 0.00 0.00 0.00 0.00 0.02 0.03 0.01 0.02 0.02 0.04 0.02 0.00 0.00 0.00
0.00 0.00 0.00 0.00 0.00 0.00 0.00 0.00 0.00 0.00 0.00 0.00 0.00 0.00 0.00 0.00 0.00 0.00 0.00 0.00 0.00 0.00 0.00 0.00 0.00 0.00 0.00 0.00 0.00 0.00 0.00 0.02 0.03 0.05 0.06 0.06 0.06 0.08 0.07 0.08 0.11 0.09 0.09
0.00 0.00 0.00 0.00 0.00 0.00 0.00 0.00 0.00 0.00 0.00 0.00 0.00 0.00 0.00 0.00 0.00 0.00 0.00 0.00 0.00 0.00 0.00 0.00 0.00 0.00 nan nan 0.01 0.00 0.00 0.02 0.08 0.09 0.09 0.09 0.09 0.13 0.12 0.10 0.15 0.11 0.09
0.00 0.00 0.00 0.00 0.00 0.00 0.00 0.00 0.00 0.00 0.00 0.00 0.00 0.00 0.00 0.00 nan nan 0.00 0.00 0.00 0.00 0.00 0.00 0.00 0.00 0.00 nan nan nan nan 0.00 0.00 0.12 0.09 0.07 0.01 0.10 0.12 0.14 0.17 0.27 0.28
0.00 0.00 0.00 0.00 0.00 0.00 0.01 0.01 0.01 0.00 0.00 0.00 0.00 0.00 0.00 0.00 nan nan nan 0.00 0.00 0.00 0.00 0.00 0.00 0.00 0.02 0.00 nan nan nan nan nan 0.00 0.01 0.03 0.01 0.01 0.01 0.03 0.02 0.18 0.20
0.00 0.00 0.01 0.01 0.02 0.02 0.02 0.02 0.01 0.01 0.01 0.00 0.00 0.00 0.00 0.00 nan nan nan 0.00 0.00 0.00 0.00 0.00 0.00 0.00 0.00 0.00 0.00 0.01 0.01 0.00 0.00 0.00 0.00 0.01 0.00 0.01 0.01 0.01 0.02 0.03 0.21
0.00 0.01 0.01 0.01 0.02 0.02 0.03 0.02 0.01 0.02 0.01 0.01 0.00 0.01 0.00 0.00 nan nan 0.00 0.00 0.00 0.00 0.00 0.00 0.00 0.00 nan nan 0.01 0.02 0.02 0.02 nan nan nan nan nan nan nan 0.37 1.35 1.89 1.01
0.00 0.01 0.01 0.02 0.03 0.02 0.02 0.02 0.03 0.02 0.02 0.15 0.02 0.01 0.00 0.01 nan nan nan 0.11 0.01 0.15 0.02 0.01 0.01 0.01 nan nan 0.01 0.02 0.05 0.03 0.08 0.33 0.04 0.02 nan nan nan 0.02 0.38 1.30 0.95
0.02 0.02 0.03 0.02 0.04 0.02 0.03 0.03 0.04 0.03 0.03 0.05 0.05 0.03 0.03 0.01 0.01 nan nan 0.06 0.20 0.32 0.32 0.27 0.19 nan nan nan nan 0.04 0.03 0.02 0.15 0.23 0.26 0.39 0.26 0.16 0.27 0.17 0.05 0.24 0.60
0.05 0.05 0.08 0.16 0.09 0.05 0.23 0.10 0.19 0.09 0.12 0.10 0.13 0.23 0.28 0.03 nan nan nan nan nan 0.37 0.20 0.20 0.18 nan nan nan 0.21 nan nan 0.17 0.81 0.92 0.80 0.63 0.45 0.39 0.31 0.26 0.03 0.10 0.15
0.27 0.50 0.42 0.33 0.29 0.20 0.33 0.17 0.54 0.17 0.41 0.14 0.46 0.44 0.37 0.39 0.36 nan nan nan nan 0.38 0.27 0.24 nan nan nan nan nan nan 0.09 0.71 0.95 1.21 0.76 0.48 0.32 0.27 0.15 0.27 0.12 0.09 0.08
0.72 0.31 0.21 0.30 0.21 0.23 0.47 0.51 0.72 0.60 0.53 0.58 0.69 0.68 0.50 0.52 0.37 0.39 0.63 0.39 0.25 0.63 nan 0.54 nan 0.45 nan nan 0.50 0.47 0.55 0.58 0.61 0.68 0.60 0.42 0.43 0.58 0.56 0.40 0.59 0.51 0.96
0.43 0.21 0.24 0.43 0.47 0.31 0.32 0.54 0.46 0.20 0.53 1.12 1.41 1.03 1.28 1.22 0.75 0.38 1.07 1.22 1.07 1.07 1.18 1.50 1.30 0.95 0.93 0.79 0.91 0.87 0.73 0.81 0.93 0.85 0.85 0.83 0.79 0.75 0.72 0.55 0.60 0.84 1.09
0.26 0.48 0.50 0.52 0.46 0.40 0.42 0.47 nan nan nan nan nan 0.89 1.32 nan nan nan nan nan nan nan 2.70 2.52 1.24 0.98 0.83 0.83 1.03 0.98 0.87 0.91 0.81 0.90 1.00 1.00 1.09 0.94 0.94 1.07 1.00 1.10 1.16
0.71 0.48 0.66 0.57 0.54 0.59 0.62 0.70 0.90 0.67 nan nan nan nan nan nan nan nan nan nan nan nan 4.01 1.89 1.56 1.14 1.13 0.97 1.09 1.00 1.04 0.84 0.54 0.96 0.91 1.00 1.12 1.24 1.41 1.22 1.05 0.98 1.43
0.68 0.68 0.72 0.68 0.66 0.73 0.77 0.81 0.87 1.08 1.23 0.98 nan nan nan nan nan nan nan nan 3.83 nan 2.81 2.90 2.53 2.08 1.65 1.49 1.24 1.18 1.17 1.12 1.04 1.05 1.09 1.53 1.82 1.97 1.89 1.88 1.40 1.76 1.67
0.80 0.66 0.74 0.73 0.69 0.76 0.85 0.76 0.83 0.87 0.91 1.17 1.19 1.27 1.05 nan nan nan nan 2.47 3.16 2.74 2.69 2.75 2.30 2.19 1.78 1.88 1.73 1.93 1.65 1.72 1.60 2.14 2.17 2.36 2.17 2.32 2.33 1.69 1.41 1.24 1.33
0.88 0.93 0.86 1.13 1.03 0.92 0.67 0.88 0.84 0.90 1.04 1.19 1.23 1.12 1.84 2.11 2.82 2.85 2.39 3.36 3.37 2.99 2.55 2.74 2.75 3.07 3.20 2.94 2.82 2.60 2.66 2.85 2.58 2.60 2.55 2.50 2.38 2.56 1.81 2.42 2.14 1.87 2.13
1.49 1.25 1.08 1.19 1.44 1.49 1.53 1.28 1.11 1.49 1.31 1.51 1.23 1.18 nan 2.19 2.31 2.49 2.81 2.66 3.08 3.33 2.74 2.95 3.10 4.03 4.17 4.59 3.80 3.66 3.38 2.18 2.70 2.94 3.11 3.09 3.01 3.89 2.32 1.65 2.31 2.46 2.38
1.72 1.78 1.75 1.90 1.38 1.50 1.75 1.32 1.43 1.46 1.43 1.30 1.10 1.24 nan 1.70 1.90 1.97 2.24 2.83 3.46 3.58 4.06 4.70 4.59 4.96 4.38 4.07 3.65 3.42 2.88 3.32 3.58 3.33 2.67 2.82 3.34 2.97 2.94 2.15 2.25 1.99 2.55
1.51 1.34 1.46 1.47 1.44 1.58 1.65 1.96 1.80 1.78 1.68 1.88 1.71 1.77 1.99 2.44 2.28 2.29 3.20 3.53 2.93 2.79 3.15 3.38 3.19 3.08 2.91 3.23 2.86 2.75 2.89 3.16 3.22 4.23 3.02 3.09 3.01 3.43 3.09 2.80 2.52 2.84 2.74
1.36 1.38 1.37 1.83 1.68 1.49 1.79 1.91 1.68 1.68 1.82 2.01 3.04 2.57 1.74 2.15 2.96 2.24 2.33 2.75 2.32 3.74 2.73 2.89 2.43 2.37 2.57 3.80 4.78 4.67 5.03 5.27 5.01 4.61 4.14 2.91 2.85 2.48 2.52 2.96 2.38 2.27 1.95
1.78 1.55 1.58 1.48 2.23 1.85 1.73 2.12 1.62 2.22 2.57 2.10 2.50 1.89 1.94 1.78 1.92 2.71 2.53 2.11 2.36 2.18 1.92 1.89 1.96 2.02 2.07 2.18 2.99 3.84 4.03 1.57 2.97 1.70 3.64 2.58 3.01 3.06 2.92 2.51 2.37 2.09 1.87
1.44 1.57 1.64 1.70 1.68 1.85 1.94 1.91 1.99 1.61 2.02 2.15 2.00 2.04 1.76 1.76 1.76 2.10 1.94 1.96 1.60 1.69 1.77 1.94 1.93 1.72 1.63 1.82 1.92 1.80 1.47 1.32 3.13 1.47 2.90 2.42 2.72 2.49 2.45 2.47 2.33 2.26 1.87
SL_Ratio
nan nan nan nan nan nan nan nan nan nan nan nan nan nan nan nan nan nan nan nan nan nan nan nan nan nan nan nan nan nan nan nan nan nan nan nan nan nan nan nan nan nan nan
nan nan nan nan nan nan nan nan nan nan nan nan nan nan nan nan nan nan nan nan nan nan nan nan nan nan nan nan nan nan nan nan nan nan nan nan nan nan nan nan nan nan nan
nan nan nan nan nan nan nan nan nan nan nan nan nan nan nan nan nan nan nan nan nan nan nan nan nan nan nan nan nan nan nan nan nan 2.5 2.6 2.5 2.5 2.6 2.5 2.5 nan nan nan
nan nan nan nan nan nan nan nan nan nan nan nan nan nan nan nan nan nan nan nan nan nan nan nan nan nan nan nan nan nan nan 2.4 2.4 2.5 2.5 2.5 2.5 2.5 2.5 2.6 2.9 2.6 2.6
nan nan nan nan nan nan nan nan nan nan nan nan nan nan nan nan nan nan nan nan nan nan nan nan nan nan nan nan 2.8 2.5 2.5 2.5 2.5 2.5 2.5 2.5 2.7 3.0 3.0 2.8 2.9 2.8 2.9
nan nan nan nan nan nan nan nan nan nan nan nan nan nan nan nan nan nan nan nan nan nan nan nan nan nan nan nan nan nan nan 5.0 4.3 2.6 2.7 2.7 2.7 2.7 2.7 3.0 3.1 3.6 4.0
nan 0.0 5.0 1.7 2.9 2.9 2.5 2.7 2.9 3.0 2.5 2.5 nan nan nan nan nan nan nan 2.1 2.5 nan nan nan nan nan 2.4 nan nan nan nan nan nan 5.0 3.7 2.9 3.5 2.9 3.0 3.5 3.7 3.6 3.5
nan 1.7 2.9 2.8 2.9 3.1 3.3 3.1 3.0 3.1 2.7 2.5 1.7 nan nan nan nan nan nan nan nan nan nan nan nan nan 2.5 5.0 0.0 4.2 4.0 5.0 5.0 5.0 5.0 3.8 nan 2.2 3.1 3.2 3.8 3.5 3.6
2.5 2.7 3.1 3.3 3.6 3.6 3.9 3.4 3.3 3.0 2.9 2.9 2.1 3.0 2.5 2.5 nan nan nan nan nan 5.0 nan nan 5.0 2.5 nan nan 4.0 4.4 4.7 5.4 nan nan nan nan nan nan nan 2.9 3.6 3.9 4.7
3.3 3.0 3.2 3.5 3.9 4.0 3.5 3.7 3.5 3.0 3.1 3.0 2.8 2.7 2.5 2.5 nan nan nan 2.5 3.2 2.7 2.9 3.1 2.9 4.4 nan nan 5.0 4.7 4.8 5.5 4.1 3.2 4.3 3.5 nan nan nan 3.3 3.4 4.3 4.8
3.7 4.2 4.3 4.1 4.4 4.0 3.8 3.7 3.7 3.5 3.6 3.5 3.6 3.3 2.9 2.6 2.5 nan nan 2.7 2.9 3.3 3.6 3.9 3.8 nan nan nan nan 4.8 5.0 4.0 3.4 3.8 3.6 3.2 3.1 3.2 3.0 3.1 3.4 3.6 4.4
4.6 4.9 4.9 4.7 4.2 3.9 4.0 3.8 3.4 3.3 3.7 4.0 4.2 4.0 3.7 3.6 nan nan nan nan nan 3.4 4.1 3.6 3.7 nan nan nan 3.7 nan nan 3.4 3.4 3.5 3.6 3.9 4.0 3.9 3.5 3.5 3.9 4.0 4.0
5.5 5.3 5.1 4.8 4.5 4.3 4.1 4.3 4.1 4.0 4.3 5.0 4.7 4.8 4.8 4.3 3.6 nan nan nan nan 3.6 3.6 4.3 nan nan nan nan nan nan 3.0 3.9 3.8 4.1 4.4 4.6 4.2 4.0 4.5 4.6 4.8 5.1 5.3
5.1 6.0 5.8 5.4 4.6 5.1 4.5 4.3 4.2 4.6 4.9 4.8 4.9 5.0 5.1 5.1 4.6 4.0 3.8 3.5 3.5 3.9 nan 4.4 nan 4.8 nan nan 4.0 4.6 4.2 4.4 4.5 4.8 5.0 5.1 4.8 5.1 5.1 4.9 5.4 5.3 6.0
6.0 7.1 5.5 5.1 5.1 5.6 5.4 4.8 5.0 4.8 4.5 4.8 4.6 5.0 5.4 5.4 5.1 4.5 4.4 4.3 3.9 4.1 4.0 4.6 5.0 5.5 5.7 5.6 5.2 5.5 4.8 5.2 5.4 5.2 5.4 5.6 5.4 5.3 5.6 5.4 5.6 5.5 6.0
7.6 6.6 6.0 5.8 6.0 6.2 6.4 6.4 nan nan nan nan nan 4.8 4.4 nan nan nan nan nan nan nan 4.3 4.9 5.9 6.0 6.6 6.4 6.3 6.8 6.7 6.2 6.5 6.1 5.9 5.8 6.5 6.7 6.8 6.1 5.9 6.0 6.4
8.0 8.9 7.8 7.8 7.5 6.9 6.5 6.2 7.7 5.9 nan nan nan nan nan nan nan nan nan nan nan nan 4.7 5.5 6.1 6.7 7.0 7.3 7.3 7.3 8.0 7.6 8.8 7.0 7.2 6.9 6.8 6.5 6.3 6.5 6.5 6.4 6.2
7.8 3.0 7.0 6.9 6.5 6.5 6.3 6.2 6.1 7.1 7.4 7.1 nan nan nan nan nan nan nan nan 5.2 nan 4.8 5.7 6.6 7.1 7.9 7.8 8.0 8.1 8.3 8.3 8.2 7.5 7.3 6.7 6.5 6.5 6.7 6.5 6.4 6.3 6.4
8.7 8.1 7.8 7.6 7.3 7.0 6.9 7.1 6.7 7.5 8.0 8.2 8.7 7.7 4.4 nan nan nan nan 5.9 6.0 6.3 6.4 6.2 6.3 7.0 7.8 7.5 7.6 7.3 7.6 7.7 7.6 6.9 6.7 6.6 6.6 6.5 6.5 6.6 6.8 5.1 5.4
9.4 4.0 7.0 8.2 8.5 8.5 9.1 9.4 10.1 10.1 10.2 9.9 9.7 9.8 7.4 6.2 6.4 6.2 6.4 6.0 6.3 6.6 6.9 6.7 6.7 6.6 6.7 6.7 6.7 6.8 7.0 6.9 7.0 6.8 6.8 6.7 6.6 6.4 7.3 6.7 6.7 7.1 6.5
9.7 10.2 3.0 10.5 9.9 9.8 9.7 10.3 10.8 10.0 10.3 9.8 10.2 10.1 nan 8.0 8.7 8.2 7.3 7.8 7.1 7.1 7.4 7.1 7.1 6.6 6.5 6.3 6.6 6.7 6.9 7.7 7.2 7.0 6.8 6.8 6.7 7.2 6.7 7.2 6.9 6.8 6.7
10.2 10.1 10.1 10.0 11.1 10.8 10.2 11.0 10.8 10.7 10.8 11.2 11.5 10.5 nan 10.3 10.0 9.9 10.0 9.2 8.7 8.6 7.7 7.3 7.3 7.0 7.2 7.3 7.5 7.5 7.9 7.5 7.2 7.3 7.6 7.5 7.2 7.7 7.2 7.7 7.5 7.6 7.1
11.2 11.9 11.6 11.6 11.6 4.8 10.9 10.2 10.7 10.7 11.1 10.7 10.9 11.4 11.0 9.8 10.4 10.8 9.5 9.3 10.0 10.2 9.6 9.2 9.3 9.5 9.3 8.8 8.9 8.9 8.9 8.5 8.3 7.4 8.8 8.5 8.6 8.0 7.8 7.9 8.0 7.9 7.8
11.9 11.8 11.8 10.6 11.2 12.0 11.3 11.1 11.6 4.4 11.3 11.0 9.7 10.3 11.9 11.0 10.0 11.2 11.0 10.3 10.9 9.0 10.1 9.8 10.4 10.4 9.8 8.4 7.6 7.5 7.3 7.1 7.3 7.5 7.8 9.1 9.1 8.5 9.2 8.5 8.8 8.4 9.2
11.5 12.2 12.0 12.2 10.5 11.5 11.7 11.0 12.4 11.1 10.5 11.2 10.4 11.6 11.7 11.9 11.4 9.9 10.2 10.8 10.4 10.6 11.1 11.1 10.7 10.5 10.4 10.2 9.1 8.2 7.3 3.0 7.0 3.0 8.4 9.4 9.0 8.9 9.1 9.3 9.3 9.7 9.7
12.4 12.2 12.1 12.0 12.1 11.6 11.2 11.3 11.1 11.9 11.0 10.7 11.0 10.9 11.5 11.5 11.2 10.3 10.6 10.6 11.4 11.2 10.9 10.6 10.6 10.9 11.0 10.5 10.3 4.1 3.0 3.0 8.1 3.0 9.1 10.0 9.7 10.2 10.2 10.0 10.3 10.2 10.6